Other Public Products
Issued by NWS Grand Forks, ND

Home | Current Version | Previous Version | Graphics & Text | Print | Product List | Glossary On
Versions: 1 2 3 4 5 6 7 8 9 10 11 12 13 14 15 16 17 18 19 20 21 22 23 24 25 26 27 28 29 30 31 32 33 34 35 36 37 38 39 40 41 42 43 44 45 46 47 48 49 50
000
FPUS83 KFGF 230310
OPUFGF
PRAIRIE TO PINES WEATHER ROUNDUP
NATIONAL WEATHER SERVICE EASTERN NORTH DAKOTA/GRAND FORKS ND
1000 PM CDT SAT APR 22 2017

 **SATELLITE DATA USED TO AUGMENT SKY COVER AT AUTOMATED STATIONS**
 *****  WEATHER ACROSS EASTERN NORTH DAKOTA  *****

CITY           SKY/WX    TMP DP  RH WIND       PRES   REMARKS
GRAND FORKS    FLURRIES  34  31  88 NE13G25   30.23R WCI  25
GRAND FORKS AF CLOUDY    32  29  92 NE14      30.23S WCI  22
GRAND CITY NWS NOT AVBL
BUXTON         NOT AVBL
DEVILS LAKE    CLOUDY    34  30  85 NE15      30.22R WCI  24
FARGO          CLOUDY    40  34  79 N23G36    30.13R
WAHPETON ARPT  FAIR      46  37  71 N21G29    30.08R
$$

 *****  WEATHER ACROSS CENTRAL AND WESTERN NORTH DAKOTA  *****

CITY           SKY/WX    TMP DP  RH WIND       PRES   REMARKS
JAMESTOWN      FAIR      37  33  85 NE20G26   30.15R
BISMARCK       MOCLDY    43  36  76 NE23      30.11R
MINOT          CLOUDY    35  30  82 NE16      30.20R
MINOT AFB      CLOUDY    33  33  96 E16       30.20R WCI  23
GARRISON         N/A     37  32  82 E15G24    30.15R
WILLISTON      CLOUDY    40  33  76 E12       30.15R
DICKINSON      CLOUDY    43  38  82 NE18      30.06R
HETTINGER      CLOUDY    53  43  68 CALM      30.04F
$$

 *****  OTHER OBSERVATIONS NORTHEAST NORTH DAKOTA  *****

CITY           SKY/WX    TMP DP  RH WIND       PRES   REMARKS
WALHALLA       NOT AVBL
LANGDON        FAIR      32  30  93 NE15      30.23F WCI  22
CAVALIER       FAIR      34  28  80 NE9       30.26S
GRAFTON        FLURRIES  34  30  86 N15       30.27R WCI  24
CANDO          NOT AVBL
FORT TOTTEN      N/A     34  31  87 NE9       29.95S
ROLLA          CLOUDY    30  25  80 NE16G23   30.24S WCI  19
RUGBY          NOT AVBL
 ***** THE ABOVE OBSERVATIONS ARE NON NWS ARE NOT QUALITY
        CONTROLLED AND MAY MIS-REPORT RAIN FOR SNOW...
$$

 *****  OTHER OBSERVATIONS SOUTHEAST NORTH DAKOTA *****

CITY           SKY/WX    TMP DP  RH WIND       PRES   REMARKS
COOPERSTOWN    MOCLDY    34  32  93 NE20G32   30.19R WCI  22
VALLEY CITY    MIX PCPN  36  32  87 NE20G26   30.16S
OAKES          NOT AVBL
GWINNER        CLEAR     45  39  81 MISG      30.10R
SHEYENNE NWR     N/A     41  33  74 N17       29.95S
BUFFALO        NOT AVBL
WYNDMERE         N/A     48  39  71 N17         N/A
 ***** THE ABOVE OBSERVATIONS ARE NON NWS ARE NOT QUALITY
       CONTROLLED AND MAY MIS-REPORT RAIN FOR SNOW...
$$

  *****  WEATHER ACROSS NORTHERN MINNESOTA  *****

CITY           SKY/WX    TMP DP  RH WIND       PRES   REMARKS
FLAG ISLAND    CLOUDY    36  25  64 N13       30.20S
WARROAD        FAIR      36  28  75 NW9G18    30.21S
ROSEAU         FAIR      36  28  75 N12       30.22R
HALLOCK        MOCLDY    34  27  75 N14       30.25S WCI  24
THF RVR FALLS  LGT SNOW  33  30  88 N20       30.20R FOG     WCI  21
HALSTAD          N/A     37  30  75 N22         N/A
FOSSTON        CLOUDY    37  30  75 N15G24    30.16R
BAUDETTE       CLOUDY    37  31  78 N13       30.18R
WASKISH        CLOUDY    36  34  93 N6        30.17S
CROOKSTON      CLOUDY    36  28  75 N16G22    30.22R
$$
  *****  WEATHER ACROSS CENTRAL AND WEST MINNESOTA  *****

CITY           SKY/WX    TMP DP  RH WIND       PRES   REMARKS
BEMIDJI        MOCLDY    39  34  82 N12       30.14R
PARK RAPIDS    MOCLDY    54  38  54 NE12G20   30.06R
WADENA         FAIR      54  39  58 NW5       30.04S
DETROIT LAKES  FAIR      50  41  71 N8        30.08R
MOORHEAD       MOCLDY    43  36  75 N21G30    30.12S
FERGUS FALLS   FAIR      54  43  66 N8        30.04R
ELBOW LAKE     FAIR      50  40  69 W7        30.06S
MORRIS MN      FAIR      54  39  58 SW10      30.07S
STAPLES        FAIR      50  37  62 S5        30.04F
WHEATON        FAIR      55  36  47 S9        30.07F
$$
  *****  WEATHER ELSEWHERE ACROSS MINNESOTA  *****

CITY           SKY/WX    TMP DP  RH WIND       PRES   REMARKS
DULUTH         FAIR      54  41  61 N9        30.04S
INTRNTL FALLS  LGT RAIN  38  35  89 NW10      30.15S
ELY            FAIR      41  36  81 CALM      30.08F
CLOQUET        MOCLDY    55  37  50 NW5       30.05S
BRAINERD       FAIR      52  36  54 S5        30.05F
HIBBING        FAIR      44  37  76 N9        30.07S
ALEXANDRIA     FAIR      55  38  52 SW9       30.08S
SAINT CLOUD    FAIR      53  39  59 S5        30.08S
MINNEAPOLIS    FAIR      61  34  36 SW5       30.10S
$$

  *****  WEATHER ACROSS SOUTH DAKOTA  *****

CITY           SKY/WX    TMP DP  RH WIND       PRES   REMARKS
SIOUX FALLS    FAIR      53  39  59 SW3       30.15R
BROOKINGS      FAIR      53  37  54 SW7       30.13S
WATERTOWN      FAIR      49  39  68 SW8       30.10F
HURON          FAIR      56  37  49 MISG      30.11S
SISSETON         N/A     56  38  50 W10       30.05F
ABERDEEN       FAIR      50  33  52 S8        30.06S
MITCHELL       FAIR      57  39  51 S7        30.14R
PIERRE         FAIR      51  36  56 CALM      30.06S
MOBRIDGE       FAIR      55  38  52 CALM      30.02S
RAPID CITY     FAIR      48  33  56 S5        30.04S
$$

  *****  SOME WEATHER IN NEARBY STATES *****

CITY           SKY/WX    TMP DP  RH WIND       PRES   REMARKS
GLASGOW MT     CLOUDY    47  40  76 E18       30.03R
GREAT FALLS MT FAIR      52  38  58 NE8       29.88S
CHEYENNE WY    FAIR      43  30  60 S10       30.18S
SCOTTSBLUFF NE FAIR      50  29  44 S9        30.15S
OMAHA NE       FAIR      56  34  43 CALM      30.19R
DES MOINES IA  FAIR      60  26  27 E5        30.18R
DAVENPORT IA   FAIR      48  33  56 N8        30.17R
CHICAGO IL     FAIR      52  20  28 VRB3      30.16R
EAU CLAIRE WI  FAIR      54  34  46 S5        30.09F
LA CROSSE WI   FAIR      56  37  49 S3        30.13S
$$

  *****  SOME NATIONAL WEATHER *****

CITY           SKY/WX    TMP DP  RH WIND       PRES   REMARKS
LA GUARDIA NY  CLOUDY    54  39  57 N10       29.99R
RALEIGH NC     CLOUDY    57  54  89 NE12      29.99R
ATLANTA GA     CLOUDY    71  58  63 SW5       29.87S
NEW ORLEANS LA MOCLDY    75  69  81 SW8       29.88R
OKLAHOMA CITY  MOCLDY    51  41  68 NW8       30.17S
ALBUQUERQUE NM MOCLDY    58  30  34 E25       30.16R
SALT LAKE CITY MOCLDY    56  39  53 N10       30.02F
LOS ANGELES CA FAIR      66  52  60 W15       29.83S
BOISE ID       FAIR      62  34  35 SE8       29.84S
SEATTLE WA     LGT RAIN  53  48  83 S9        29.95R
$$

*** WEATHER ACROSS MANITOBA...SASKATCHEWAN AND ONTARIO ***
                ***ONTARIO***

CITY           SKY/WX    TMP DP  RH WIND       PRES   REMARKS
GERALDTON      CLOUDY    27  25  93 N13G18    30.05R WCI  16
THUNDER BAY    LGT RAIN  46  37  71 NW10G17   30.05R
SIOUX LOOKOUT  FLURRIES  28  23  80 N9G17     30.17R WCI  20
TORONTO        CLEAR     46  27  46 N12       30.10R
BIG TROUT LK   CLEAR     12   3  67 N6        30.24R WCI   3
PICKLE LAKE    NOT AVBL
DRYDEN         CLOUDY    30  23  74 N7        30.17R WCI  23
KENORA         PTCLDY    30  25  80 VRB2      30.19R
$$
                *** MANITOBA***

CITY           SKY/WX    TMP DP  RH WIND       PRES   REMARKS
BRANDON        MOCLDY    30  19  64 E12       30.29R WCI  21
DAUPHIN        MOCLDY    28  16  59 N3        30.32S
ISLAND LAKE    NOT AVBL
PILOT MOUND      N/A     30  21  69 NE10        N/A  WCI  21
THE PAS        CLOUDY    28  18  64 NE7       30.32R WCI  21
THOMPSON       CLEAR      5  -8  56 N2        30.36S
WINNIPEG       MOCLDY    30  18  59 N13G20    30.30R WCI  20
LYNN LAKE      CLEAR      7  -4  61 NW2       30.35F
CHURCHILL      FLURRIES   0  -8  71 N18       30.39F WCI -22
GILLAM         CLEAR      1  -6  71 NW3       30.36F
$$
                ***SASKATCHEWAN***

CITY           SKY/WX    TMP DP  RH WIND       PRES   REMARKS
ESTEVAN        LGT RAIN  37  34  87 E15G22    30.18S
KINDERSLEY     CLOUDY    36  32  87 E22G30    30.13R
LLOYDMINSTER   MOCLDY    34  23  64 NE7       30.20R
PRINCE ALBERT  PTCLDY    27  14  59 CALM      30.25S
REGINA         CLOUDY    39  28  65 E12G20    30.18R
YORKTON        CLOUDY    34  30  86 SE8       30.24S


USA.gov is the U.S. government's official web portal to all federal, state and local government web resources and services.